When you browse on this site, cookies collect data to enhance your experience and personalize the content and advertising you see.
Visit our Privacy Policy to learn more. By continuing to use the site, you agree to this use of cookies and data.
  • In Hungary
  • List of Countries
  • For 7 days
  • Water Temperature
  • Satellite Maps
  • Weather Map
  • News
  • Weather Widgets
  • user-avatar
    Login

    Hourly Weather Santa Cruz Tecamac

    Today, 23 April, Tuesday

    Time Temperature Precipitation Wind Pressure Humidity
    00:00 +21°C° 0 mm 2 mps 584 mmHg 45%
    01:00 +20°C° 0 mm 2 mps 584 mmHg 46%
    02:00 +20°C° 0 mm 2 mps 583 mmHg 46%
    03:00 +19°C° 0 mm 2 mps 583 mmHg 48%
    04:00 +20°C° 0 mm 1 mps 583 mmHg 50%
    05:00 +19°C° 0 mm 1 mps 583 mmHg 51%
    06:00 +21°C° 0 mm 1 mps 584 mmHg 46%
    07:00 +22°C° 0 mm 1 mps 584 mmHg 41%
    08:00 +23°C° 0 mm 1 mps 585 mmHg 36%
    09:00 +25°C° 0 mm 1 mps 585 mmHg 32%
    10:00 +26°C° 0 mm 1 mps 586 mmHg 28%
    11:00 +28°C° 0 mm 1 mps 586 mmHg 24%
    12:00 +28°C° 0 mm 1 mps 586 mmHg 23%
    13:00 +29°C° 0 mm 2 mps 585 mmHg 22%
    14:00 +29°C° 0 mm 2 mps 585 mmHg 20%
    15:00 +28°C° 0.3 mm 3 mps 584 mmHg 26%
    16:00 +26°C° 0.3 mm 3 mps 583 mmHg 32%
    17:00 +23°C° 0.3 mm 4 mps 582 mmHg 38%
    18:00 +24°C° 0.4 mm 3 mps 583 mmHg 41%
    19:00 +23°C° 0.4 mm 2 mps 583 mmHg 43%
    20:00 +23°C° 0.4 mm 2 mps 584 mmHg 45%
    21:00 +23°C° 0 mm 2 mps 584 mmHg 45%
    22:00 +21°C° 0 mm 2 mps 584 mmHg 45%
    23:00 +22°C° 0 mm 1 mps 584 mmHg 45%

    Tomorrow, 24 April, Wednesday

    Time Temperature Precipitation Wind Pressure Humidity
    00:00 +21°C° 0 mm 2 mps 583 mmHg 45%
    01:00 +20°C° 0 mm 2 mps 583 mmHg 46%
    02:00 +20°C° 0 mm 2 mps 582 mmHg 46%
    03:00 +19°C° 0 mm 2 mps 582 mmHg 47%
    04:00 +19°C° 0 mm 2 mps 582 mmHg 48%
    05:00 +18°C° 0 mm 2 mps 582 mmHg 48%
    06:00 +19°C° 0 mm 2 mps 583 mmHg 44%
    07:00 +21°C° 0 mm 2 mps 583 mmHg 39%
    08:00 +23°C° 0 mm 2 mps 584 mmHg 35%
    09:00 +25°C° 0 mm 2 mps 585 mmHg 31%
    10:00 +26°C° 0 mm 3 mps 585 mmHg 27%
    11:00 +28°C° 0 mm 3 mps 585 mmHg 23%
    12:00 +28°C° 0 mm 3 mps 585 mmHg 22%
    13:00 +29°C° 0 mm 4 mps 584 mmHg 20%
    14:00 +30°C° 0 mm 4 mps 584 mmHg 19%
    15:00 +30°C° 0 mm 5 mps 584 mmHg 19%
    16:00 +29°C° 0 mm 6 mps 583 mmHg 19%
    17:00 +29°C° 0 mm 7 mps 583 mmHg 20%
    18:00 +27°C° 0 mm 6 mps 583 mmHg 21%
    19:00 +26°C° 0 mm 5 mps 583 mmHg 22%
    20:00 +23°C° 0 mm 5 mps 583 mmHg 24%
    21:00 +22°C° 0 mm 4 mps 583 mmHg 25%
    22:00 +21°C° 0 mm 3 mps 583 mmHg 27%
    23:00 +21°C° 0 mm 2 mps 583 mmHg 28%

    Day after tomorrow, 25 April, Thursday

    Time Temperature Precipitation Wind Pressure Humidity
    00:00 +20°C° 0 mm 2 mps 582 mmHg 29%
    01:00 +20°C° 0 mm 1 mps 582 mmHg 31%
    02:00 +19°C° 0 mm 1 mps 581 mmHg 32%
    03:00 +19°C° 0 mm 1 mps 581 mmHg 33%
    04:00 +18°C° 0 mm 1 mps 581 mmHg 35%
    05:00 +18°C° 0 mm 1 mps 581 mmHg 36%
    06:00 +19°C° 0 mm 1 mps 583 mmHg 32%
    07:00 +21°C° 0 mm 1 mps 584 mmHg 27%
    08:00 +22°C° 0 mm 1 mps 585 mmHg 23%
    09:00 +24°C° 0 mm 1 mps 585 mmHg 20%
    10:00 +25°C° 0 mm 1 mps 586 mmHg 17%
    11:00 +27°C° 0 mm 1 mps 586 mmHg 15%
    12:00 +28°C° 0 mm 1 mps 586 mmHg 13%
    13:00 +29°C° 0 mm 2 mps 586 mmHg 12%
    14:00 +30°C° 0 mm 2 mps 586 mmHg 11%
    15:00 +29°C° 0 mm 3 mps 585 mmHg 14%
    16:00 +28°C° 0 mm 4 mps 585 mmHg 17%
    17:00 +28°C° 0 mm 5 mps 585 mmHg 21%
    18:00 +26°C° 0.1 mm 4 mps 585 mmHg 32%
    19:00 +23°C° 0.1 mm 4 mps 585 mmHg 44%
    20:00 +21°C° 0.1 mm 4 mps 585 mmHg 56%
    21:00 +21°C° 0.1 mm 3 mps 585 mmHg 58%
    22:00 +20°C° 0.1 mm 3 mps 585 mmHg 60%
    23:00 +19°C° 0.1 mm 2 mps 585 mmHg 62%

    26 April, Friday

    Time Temperature Precipitation Wind Pressure Humidity
    00:00 +19°C° 0 mm 2 mps 585 mmHg 65%
    01:00 +18°C° 0 mm 2 mps 584 mmHg 69%
    02:00 +17°C° 0 mm 2 mps 584 mmHg 72%
    03:00 +17°C° 0 mm 2 mps 584 mmHg 73%
    04:00 +16°C° 0 mm 2 mps 584 mmHg 75%
    05:00 +16°C° 0 mm 2 mps 584 mmHg 76%
    06:00 +17°C° 0 mm 2 mps 584 mmHg 67%
    07:00 +18°C° 0 mm 2 mps 585 mmHg 59%
    08:00 +19°C° 0 mm 2 mps 586 mmHg 51%
    09:00 +21°C° 0 mm 2 mps 586 mmHg 44%
    10:00 +23°C° 0 mm 2 mps 587 mmHg 38%
    11:00 +25°C° 0 mm 2 mps 587 mmHg 32%
    12:00 +26°C° 0 mm 2 mps 587 mmHg 30%
    13:00 +27°C° 0 mm 2 mps 586 mmHg 28%
    14:00 +28°C° 0 mm 3 mps 586 mmHg 26%
    15:00 +26°C° 0.6 mm 3 mps 585 mmHg 32%
    16:00 +24°C° 0.6 mm 3 mps 585 mmHg 39%
    17:00 +21°C° 0.6 mm 3 mps 584 mmHg 45%
    18:00 +21°C° 0.2 mm 3 mps 585 mmHg 48%
    19:00 +20°C° 0.2 mm 2 mps 585 mmHg 51%
    20:00 +20°C° 0.2 mm 2 mps 586 mmHg 54%
    21:00 +19°C° 0.2 mm 2 mps 585 mmHg 56%
    22:00 +19°C° 0.2 mm 2 mps 585 mmHg 58%
    23:00 +18°C° 0.2 mm 2 mps 585 mmHg 60%

    27 April, Saturday

    Time Temperature Precipitation Wind Pressure Humidity
    00:00 +18°C° 0 mm 1 mps 584 mmHg 62%
    01:00 +18°C° 0 mm 1 mps 584 mmHg 63%
    02:00 +16°C° 0 mm 1 mps 583 mmHg 65%
    03:00 +16°C° 0 mm 1 mps 583 mmHg 65%
    04:00 +15°C° 0 mm 0 mps 583 mmHg 65%
    05:00 +14°C° 0 mm 0 mps 583 mmHg 65%
    06:00 +16°C° 0 mm 0 mps 584 mmHg 55%
    07:00 +18°C° 0 mm 0 mps 585 mmHg 45%
    08:00 +19°C° 0 mm 0 mps 586 mmHg 35%
    09:00 +23°C° 0 mm 1 mps 586 mmHg 30%
    10:00 +25°C° 0 mm 2 mps 586 mmHg 25%
    11:00 +26°C° 0 mm 2 mps 586 mmHg 20%
    12:00 +27°C° 0 mm 3 mps 586 mmHg 18%
    13:00 +28°C° 0 mm 3 mps 586 mmHg 17%
    14:00 +29°C° 0 mm 4 mps 585 mmHg 16%
    15:00 +28°C° 0 mm 4 mps 585 mmHg 18%
    16:00 +27°C° 0 mm 5 mps 585 mmHg 21%
    17:00 +27°C° 0 mm 6 mps 584 mmHg 23%
    18:00 +25°C° 0 mm 5 mps 584 mmHg 27%
    19:00 +23°C° 0 mm 4 mps 584 mmHg 31%
    20:00 +21°C° 0 mm 3 mps 585 mmHg 34%
    21:00 +21°C° 0 mm 2 mps 584 mmHg 35%
    22:00 +21°C° 0 mm 1 mps 584 mmHg 37%
    23:00 +18°C° 0 mm 0 mps 584 mmHg 38%

    28 April, Sunday

    Time Temperature Precipitation Wind Pressure Humidity
    00:00 +18°C° 0 mm 0 mps 583 mmHg 38%
    01:00 +17°C° 0 mm 0 mps 583 mmHg 38%
    02:00 +19°C° 0 mm 1 mps 582 mmHg 38%
    03:00 +18°C° 0 mm 1 mps 582 mmHg 38%
    04:00 +18°C° 0 mm 1 mps 582 mmHg 38%
    05:00 +15°C° 0 mm 0 mps 582 mmHg 38%
    06:00 +17°C° 0 mm 0 mps 583 mmHg 33%
    07:00 +19°C° 0 mm 0 mps 584 mmHg 28%
    08:00 +21°C° 0 mm 0 mps 585 mmHg 23%
    09:00 +25°C° 0 mm 1 mps 586 mmHg 20%
    10:00 +26°C° 0 mm 1 mps 586 mmHg 17%
    11:00 +28°C° 0 mm 1 mps 586 mmHg 15%
    12:00 +29°C° 0 mm 2 mps 586 mmHg 14%
    13:00 +29°C° 0 mm 2 mps 585 mmHg 14%
    14:00 +30°C° 0 mm 3 mps 585 mmHg 13%
    15:00 +29°C° 0 mm 4 mps 585 mmHg 16%
    16:00 +29°C° 0 mm 5 mps 584 mmHg 19%
    17:00 +28°C° 0 mm 6 mps 584 mmHg 22%
    18:00 +26°C° 0 mm 5 mps 584 mmHg 25%
    19:00 +25°C° 0 mm 4 mps 584 mmHg 29%
    20:00 +22°C° 0 mm 3 mps 584 mmHg 32%
    21:00 +23°C° 0 mm 2 mps 584 mmHg 34%
    22:00 +21°C° 0 mm 2 mps 584 mmHg 35%
    23:00 +21°C° 0 mm 1 mps 584 mmHg 37%
    Show more